Year,Month,Day,Hour,Minute,Value (Times are PST for temperature in C)
2009,05,27,00,00,7.80
2009,05,27,00,01,7.80
2009,05,27,00,02,7.80
2009,05,27,00,03,7.70
2009,05,27,00,04,7.70
2009,05,27,00,05,7.60
2009,05,27,00,06,7.60
2009,05,27,00,07,7.60
2009,05,27,00,08,7.50
2009,05,27,00,09,7.50
2009,05,27,00,10,7.40
2009,05,27,00,11,7.40
2009,05,27,00,12,7.30
2009,05,27,00,13,7.30
2009,05,27,00,14,7.30
2009,05,27,00,15,7.30
2009,05,27,00,16,7.20
2009,05,27,00,17,7.20
2009,05,27,00,18,7.20
2009,05,27,00,19,7.10
2009,05,27,00,20,7.10
2009,05,27,00,21,7.10
2009,05,27,00,22,7.00
2009,05,27,00,23,7.00
2009,05,27,00,24,7.00
2009,05,27,00,25,7.00
2009,05,27,00,26,7.00
2009,05,27,00,27,6.90
2009,05,27,00,28,6.90
2009,05,27,00,29,6.90
2009,05,27,00,30,6.90
2009,05,27,00,31,6.80
2009,05,27,00,32,6.80
2009,05,27,00,33,6.80
2009,05,27,00,34,6.80
2009,05,27,00,35,6.80
2009,05,27,00,36,6.80
2009,05,27,00,37,6.70
2009,05,27,00,38,6.70
2009,05,27,00,39,6.70
2009,05,27,00,40,6.60
2009,05,27,00,41,6.60
2009,05,27,00,42,6.60
2009,05,27,00,43,6.60
2009,05,27,00,44,6.50
2009,05,27,00,45,6.40
2009,05,27,00,46,6.40
2009,05,27,00,47,6.40
2009,05,27,00,48,6.40
2009,05,27,00,49,6.40
2009,05,27,00,50,6.40
2009,05,27,00,51,6.30
2009,05,27,00,52,6.30
2009,05,27,00,53,6.30
2009,05,27,00,54,6.30
2009,05,27,00,55,6.30
2009,05,27,00,56,6.20
2009,05,27,00,57,6.20
2009,05,27,00,58,6.20
2009,05,27,00,59,6.20
2009,05,27,01,00,6.20
2009,05,27,01,01,6.20
2009,05,27,01,02,6.20
2009,05,27,01,03,6.20
2009,05,27,01,04,6.10
2009,05,27,01,05,6.10
2009,05,27,01,06,6.10
2009,05,27,01,07,6.10
2009,05,27,01,08,6.00
2009,05,27,01,09,6.00
2009,05,27,01,10,6.00
2009,05,27,01,11,6.00
2009,05,27,01,12,5.90
2009,05,27,01,13,5.90
2009,05,27,01,14,5.90
2009,05,27,01,15,5.90
2009,05,27,01,16,5.80
2009,05,27,01,17,5.80
2009,05,27,01,18,5.80
2009,05,27,01,19,5.80
2009,05,27,01,20,5.70
2009,05,27,01,21,5.70
2009,05,27,01,22,5.70
2009,05,27,01,23,5.70
2009,05,27,01,24,5.70
2009,05,27,01,25,5.70
2009,05,27,01,26,5.70
2009,05,27,01,27,5.70
2009,05,27,01,28,5.70
2009,05,27,01,29,5.70
2009,05,27,01,30,5.70
2009,05,27,01,31,5.70
2009,05,27,01,32,5.70
2009,05,27,01,33,5.70
2009,05,27,01,34,5.60
2009,05,27,01,35,5.60
2009,05,27,01,36,5.60
2009,05,27,01,37,5.60
2009,05,27,01,38,5.60
2009,05,27,01,39,5.50
2009,05,27,01,40,5.50
2009,05,27,01,41,5.50
2009,05,27,01,42,5.50
2009,05,27,01,43,5.50
2009,05,27,01,44,5.50
2009,05,27,01,45,5.50
2009,05,27,01,46,5.40
2009,05,27,01,47,5.40
2009,05,27,01,48,5.40
2009,05,27,01,49,5.40
2009,05,27,01,50,5.40
2009,05,27,01,51,5.40
2009,05,27,01,52,5.40
2009,05,27,01,53,5.40
2009,05,27,01,54,5.30
2009,05,27,01,55,5.30
2009,05,27,01,56,5.30
2009,05,27,01,57,5.30
2009,05,27,01,58,5.30
2009,05,27,01,59,5.30
2009,05,27,02,00,5.30
2009,05,27,02,01,5.30
2009,05,27,02,02,5.30
2009,05,27,02,03,5.30
2009,05,27,02,04,5.30
2009,05,27,02,05,5.30
2009,05,27,02,06,5.20
2009,05,27,02,07,5.20
2009,05,27,02,08,5.20
2009,05,27,02,09,5.20
2009,05,27,02,10,5.20
2009,05,27,02,11,5.20
2009,05,27,02,12,5.20
2009,05,27,02,13,5.20
2009,05,27,02,14,5.10
2009,05,27,02,15,5.10
2009,05,27,02,16,5.10
2009,05,27,02,17,5.10
2009,05,27,02,18,5.10
2009,05,27,02,19,5.10
2009,05,27,02,20,5.10
2009,05,27,02,21,5.10
2009,05,27,02,22,5.10
2009,05,27,02,23,4.90
2009,05,27,02,24,4.90
2009,05,27,02,25,4.90
2009,05,27,02,26,4.90
2009,05,27,02,27,4.90
2009,05,27,02,28,4.90
2009,05,27,02,29,4.80
2009,05,27,02,30,4.80
2009,05,27,02,31,4.80
2009,05,27,02,32,4.70
2009,05,27,02,33,4.70
2009,05,27,02,34,4.70
2009,05,27,02,35,4.70
2009,05,27,02,36,4.70
2009,05,27,02,37,4.70
2009,05,27,02,38,4.70
2009,05,27,02,39,4.60
2009,05,27,02,40,4.60
2009,05,27,02,41,4.60
2009,05,27,02,42,4.60
2009,05,27,02,43,4.60
2009,05,27,02,44,4.60
2009,05,27,02,45,4.60
2009,05,27,02,46,4.60
2009,05,27,02,47,4.60
2009,05,27,02,48,4.60
2009,05,27,02,49,4.60
2009,05,27,02,50,4.50
2009,05,27,02,51,4.50
2009,05,27,02,52,4.50
2009,05,27,02,53,4.50
2009,05,27,02,54,4.50
2009,05,27,02,55,4.40
2009,05,27,02,56,4.40
2009,05,27,02,57,4.40
2009,05,27,02,58,4.40
2009,05,27,02,59,4.40
2009,05,27,03,00,4.40
2009,05,27,03,01,4.30
2009,05,27,03,02,4.30
2009,05,27,03,03,4.30
2009,05,27,03,04,4.30
2009,05,27,03,05,4.30
2009,05,27,03,06,4.20
2009,05,27,03,07,4.20
2009,05,27,03,08,4.20
2009,05,27,03,09,4.20
2009,05,27,03,10,4.20
2009,05,27,03,11,4.20
2009,05,27,03,12,4.20
2009,05,27,03,13,4.20
2009,05,27,03,14,4.20
2009,05,27,03,15,4.20
2009,05,27,03,16,4.20
2009,05,27,03,17,4.20
2009,05,27,03,18,4.20
2009,05,27,03,19,4.20
2009,05,27,03,20,4.10
2009,05,27,03,21,4.10
2009,05,27,03,22,4.10
2009,05,27,03,23,4.10
2009,05,27,03,24,4.10
2009,05,27,03,25,4.10
2009,05,27,03,26,4.00
2009,05,27,03,27,4.00
2009,05,27,03,28,4.00
2009,05,27,03,29,4.00
2009,05,27,03,30,4.00
2009,05,27,03,31,4.00
2009,05,27,03,32,4.00
2009,05,27,03,33,4.00
2009,05,27,03,34,4.00
2009,05,27,03,35,4.00
2009,05,27,03,36,4.00
2009,05,27,03,37,4.00
2009,05,27,03,38,4.00
2009,05,27,03,39,4.00
2009,05,27,03,40,4.00
2009,05,27,03,41,4.00
2009,05,27,03,42,4.00
2009,05,27,03,43,4.00
2009,05,27,03,44,4.00
2009,05,27,03,45,4.00
2009,05,27,03,46,4.00
2009,05,27,03,47,4.00
2009,05,27,03,48,4.00
2009,05,27,03,49,4.00
2009,05,27,03,50,4.00
2009,05,27,03,51,4.00
2009,05,27,03,52,4.00
2009,05,27,03,53,4.00
2009,05,27,03,54,4.00
2009,05,27,03,55,4.00
2009,05,27,03,56,4.00
2009,05,27,03,57,4.00
2009,05,27,03,58,4.00
2009,05,27,03,59,3.90
2009,05,27,04,00,3.90
2009,05,27,04,01,3.90
2009,05,27,04,02,3.90
2009,05,27,04,03,3.90
2009,05,27,04,05,3.90
2009,05,27,04,06,3.90
2009,05,27,04,07,3.90
2009,05,27,04,08,3.90
2009,05,27,04,09,3.90
2009,05,27,04,10,3.80
2009,05,27,04,11,3.80
2009,05,27,04,12,3.80
2009,05,27,04,13,3.80
2009,05,27,04,14,3.80
2009,05,27,04,15,3.80
2009,05,27,04,16,3.80
2009,05,27,04,17,3.80
2009,05,27,04,18,3.80
2009,05,27,04,19,3.80
2009,05,27,04,20,3.80
2009,05,27,04,21,3.80
2009,05,27,04,22,3.80
2009,05,27,04,23,3.80
2009,05,27,04,24,3.70
2009,05,27,04,25,3.70
2009,05,27,04,26,3.70
2009,05,27,04,27,3.70
2009,05,27,04,28,3.70
2009,05,27,04,29,3.70
2009,05,27,04,30,3.70
2009,05,27,04,31,3.70
2009,05,27,04,32,3.70
2009,05,27,04,33,3.70
2009,05,27,04,34,3.70
2009,05,27,04,35,3.70
2009,05,27,04,36,3.70
2009,05,27,04,37,3.70
2009,05,27,04,38,3.70
2009,05,27,04,39,3.70
2009,05,27,04,40,3.70
2009,05,27,04,41,3.70
2009,05,27,04,42,3.60
2009,05,27,04,43,3.60
2009,05,27,04,44,3.60
2009,05,27,04,45,3.60
2009,05,27,04,46,3.60
2009,05,27,04,47,3.60
2009,05,27,04,48,3.60
2009,05,27,04,49,3.60
2009,05,27,04,50,3.60
2009,05,27,04,51,3.60
2009,05,27,04,52,3.60
2009,05,27,04,53,3.60
2009,05,27,04,54,3.60
2009,05,27,04,55,3.60
2009,05,27,04,56,3.60
2009,05,27,04,57,3.60
2009,05,27,04,58,3.60
2009,05,27,04,59,3.60
2009,05,27,05,00,3.50
2009,05,27,05,01,3.50
2009,05,27,05,02,3.50
2009,05,27,05,03,3.50
2009,05,27,05,04,3.50
2009,05,27,05,05,3.50
2009,05,27,05,06,3.50
2009,05,27,05,07,3.50
2009,05,27,05,08,3.50
2009,05,27,05,09,3.40
2009,05,27,05,10,3.40
2009,05,27,05,11,3.40
2009,05,27,05,12,3.40
2009,05,27,05,13,3.40
2009,05,27,05,14,3.40
2009,05,27,05,15,3.40
2009,05,27,05,16,3.40
2009,05,27,05,17,3.40
2009,05,27,05,18,3.40
2009,05,27,05,19,3.40
2009,05,27,05,20,3.40
2009,05,27,05,21,3.40
2009,05,27,05,22,3.40
2009,05,27,05,23,3.40
2009,05,27,05,24,3.50
2009,05,27,05,25,3.50
2009,05,27,05,26,3.50
2009,05,27,05,27,3.50
2009,05,27,05,28,3.50
2009,05,27,05,29,3.40
2009,05,27,05,30,3.40
2009,05,27,05,31,3.40
2009,05,27,05,32,3.40
2009,05,27,05,33,3.40
2009,05,27,05,34,3.40
2009,05,27,05,35,3.30
2009,05,27,05,36,3.30
2009,05,27,05,37,3.30
2009,05,27,05,38,3.30
2009,05,27,05,39,3.30
2009,05,27,05,40,3.30
2009,05,27,05,41,3.30
2009,05,27,05,42,3.30
2009,05,27,05,43,3.30
2009,05,27,05,44,3.30
2009,05,27,05,45,3.30
2009,05,27,05,46,3.30
2009,05,27,05,47,3.30
2009,05,27,05,48,3.30
2009,05,27,05,49,3.30
2009,05,27,05,50,3.30
2009,05,27,05,51,3.30
2009,05,27,05,52,3.30
2009,05,27,05,53,3.30
2009,05,27,05,54,3.30
2009,05,27,05,55,3.30
2009,05,27,05,56,3.30
2009,05,27,05,57,3.30
2009,05,27,05,58,3.30
2009,05,27,05,59,3.30
2009,05,27,06,00,3.30
2009,05,27,06,01,3.30
2009,05,27,06,02,3.30
2009,05,27,06,03,3.30
2009,05,27,06,04,3.30
2009,05,27,06,05,3.40
2009,05,27,06,06,3.40
2009,05,27,06,07,3.40
2009,05,27,06,08,3.40
2009,05,27,06,09,3.40
2009,05,27,06,10,3.50
2009,05,27,06,11,3.50
2009,05,27,06,12,3.50
2009,05,27,06,13,3.50
2009,05,27,06,14,3.50
2009,05,27,06,15,3.60
2009,05,27,06,16,3.60
2009,05,27,06,17,3.60
2009,05,27,06,18,3.60
2009,05,27,06,19,3.60
2009,05,27,06,20,3.70
2009,05,27,06,21,3.70
2009,05,27,06,22,3.70
2009,05,27,06,23,3.80
2009,05,27,06,24,3.80
2009,05,27,06,25,3.80
2009,05,27,06,26,3.90
2009,05,27,06,27,3.90
2009,05,27,06,28,4.00
2009,05,27,06,29,4.00
2009,05,27,06,30,4.00
2009,05,27,06,31,4.10
2009,05,27,06,32,4.10
2009,05,27,06,33,4.20
2009,05,27,06,34,4.20
2009,05,27,06,35,4.40
2009,05,27,06,36,4.50
2009,05,27,06,37,4.60
2009,05,27,06,38,4.60
2009,05,27,06,39,4.70
2009,05,27,06,40,4.80
2009,05,27,06,41,4.90
2009,05,27,06,42,4.90
2009,05,27,06,43,5.10
2009,05,27,06,44,5.10
2009,05,27,06,45,5.10
2009,05,27,06,46,5.10
2009,05,27,06,47,5.20
2009,05,27,06,48,5.30
2009,05,27,06,49,5.30
2009,05,27,06,50,5.40
2009,05,27,06,51,5.50
2009,05,27,06,52,5.60
2009,05,27,06,53,5.60
2009,05,27,06,54,5.70
2009,05,27,06,55,5.70
2009,05,27,06,56,5.70
2009,05,27,06,57,5.70
2009,05,27,06,58,5.80
2009,05,27,06,59,5.90
2009,05,27,07,00,5.90
2009,05,27,07,01,6.00
2009,05,27,07,02,6.00
2009,05,27,07,03,6.10
2009,05,27,07,04,6.20
2009,05,27,07,05,6.20
2009,05,27,07,06,6.30
2009,05,27,07,07,6.40
2009,05,27,07,08,6.40
2009,05,27,07,09,6.60
2009,05,27,07,10,6.60
2009,05,27,07,11,6.70
2009,05,27,07,12,6.70
2009,05,27,07,13,6.80
2009,05,27,07,14,6.80
2009,05,27,07,15,6.90
2009,05,27,07,16,7.00
2009,05,27,07,17,7.00
2009,05,27,07,18,7.10
2009,05,27,07,19,7.30
2009,05,27,07,20,7.30
2009,05,27,07,21,7.40
2009,05,27,07,22,7.40
2009,05,27,07,23,7.50
2009,05,27,07,24,7.50
2009,05,27,07,25,7.50
2009,05,27,07,26,7.60
2009,05,27,07,27,7.60
2009,05,27,07,28,7.70
2009,05,27,07,29,7.80
2009,05,27,07,30,7.80
2009,05,27,07,31,7.80
2009,05,27,07,32,7.90
2009,05,27,07,33,7.90
2009,05,27,07,34,8.00
2009,05,27,07,35,8.00
2009,05,27,07,36,8.10
2009,05,27,07,37,8.20
2009,05,27,07,38,8.30
2009,05,27,07,39,8.40
2009,05,27,07,40,8.50
2009,05,27,07,41,8.50
2009,05,27,07,42,8.60
2009,05,27,07,43,8.70
2009,05,27,07,44,8.70
2009,05,27,07,45,8.80
2009,05,27,07,46,8.90
2009,05,27,07,47,9.00
2009,05,27,07,48,9.10
2009,05,27,07,49,9.20
2009,05,27,07,50,9.30
2009,05,27,07,51,9.40
2009,05,27,07,52,9.50
2009,05,27,07,53,9.50
2009,05,27,07,54,9.60
2009,05,27,07,55,9.70
2009,05,27,07,56,9.80
2009,05,27,07,57,9.80
2009,05,27,07,58,9.90
2009,05,27,07,59,9.90
2009,05,27,08,00,10.10
2009,05,27,08,01,10.10
2009,05,27,08,02,10.20
2009,05,27,08,03,10.40
2009,05,27,08,04,10.40
2009,05,27,08,05,10.40
2009,05,27,08,06,10.40
2009,05,27,08,07,10.60
2009,05,27,08,08,10.60
2009,05,27,08,09,10.60
2009,05,27,08,10,10.70
2009,05,27,08,11,10.80
2009,05,27,08,12,10.80
2009,05,27,08,13,10.90
2009,05,27,08,14,10.90
2009,05,27,08,15,11.10
2009,05,27,08,16,11.10
2009,05,27,08,17,11.10
2009,05,27,08,18,11.10
2009,05,27,08,19,11.10
2009,05,27,08,20,11.10
2009,05,27,08,21,11.20
2009,05,27,08,22,11.30
2009,05,27,08,23,11.30
2009,05,27,08,24,11.40
2009,05,27,08,25,11.40
2009,05,27,08,26,11.40
2009,05,27,08,27,11.40
2009,05,27,08,28,11.40
2009,05,27,08,29,11.50
2009,05,27,08,30,11.60
2009,05,27,08,31,11.60
2009,05,27,08,32,11.60
2009,05,27,08,33,11.60
2009,05,27,08,34,11.70
2009,05,27,08,35,11.80
2009,05,27,08,36,11.90
2009,05,27,08,37,12.00
2009,05,27,08,38,12.10
2009,05,27,08,39,12.30
2009,05,27,08,40,12.40
2009,05,27,08,41,12.50
2009,05,27,08,42,12.60
2009,05,27,08,43,12.70
2009,05,27,08,44,12.80
2009,05,27,08,45,12.90
2009,05,27,08,46,13.10
2009,05,27,08,47,13.20
2009,05,27,08,48,13.30
2009,05,27,08,49,13.50
2009,05,27,08,50,13.60
2009,05,27,08,51,13.70
2009,05,27,08,52,13.80
2009,05,27,08,53,13.90
2009,05,27,08,54,14.00
2009,05,27,08,55,14.10
2009,05,27,08,56,14.20
2009,05,27,08,57,14.30
2009,05,27,08,58,14.50
2009,05,27,08,59,14.60
2009,05,27,09,00,14.70
2009,05,27,09,01,14.80
2009,05,27,09,02,14.80
2009,05,27,09,03,14.90
2009,05,27,09,04,14.90
2009,05,27,09,05,14.90
2009,05,27,09,06,14.90
2009,05,27,09,07,14.90
2009,05,27,09,08,14.90
2009,05,27,09,09,15.00
2009,05,27,09,10,15.00
2009,05,27,09,11,15.10
2009,05,27,09,12,15.10
2009,05,27,09,13,15.20
2009,05,27,09,14,15.20
2009,05,27,09,15,15.20
2009,05,27,09,16,15.30
2009,05,27,09,17,15.30
2009,05,27,09,18,15.30
2009,05,27,09,19,15.30
2009,05,27,09,20,15.40
2009,05,27,09,21,15.40
2009,05,27,09,22,15.40
2009,05,27,09,23,15.30
2009,05,27,09,24,15.40
2009,05,27,09,25,15.40
2009,05,27,09,26,15.40
2009,05,27,09,27,15.40
2009,05,27,09,28,15.50
2009,05,27,09,29,15.60
2009,05,27,09,30,15.60
2009,05,27,09,31,15.70
2009,05,27,09,32,15.80
2009,05,27,09,33,15.90
2009,05,27,09,34,15.90
2009,05,27,09,35,15.90
2009,05,27,09,36,16.00
2009,05,27,09,37,16.10
2009,05,27,09,38,16.10
2009,05,27,09,39,16.10
2009,05,27,09,40,15.90
2009,05,27,09,41,15.80
2009,05,27,09,42,15.60
2009,05,27,09,43,15.50
2009,05,27,09,44,15.50
2009,05,27,09,45,15.40
2009,05,27,09,46,15.40
2009,05,27,09,47,15.40
2009,05,27,09,48,15.30
2009,05,27,09,49,15.30
2009,05,27,09,50,15.20
2009,05,27,09,51,15.00
2009,05,27,09,52,14.90
2009,05,27,09,53,14.70
2009,05,27,09,54,14.60
2009,05,27,09,55,14.60
2009,05,27,09,56,14.60
2009,05,27,09,57,14.60
2009,05,27,09,58,14.70
2009,05,27,09,59,14.80
2009,05,27,10,00,14.90
2009,05,27,10,01,15.00
2009,05,27,10,02,15.10
2009,05,27,10,03,15.20
2009,05,27,10,04,15.30
2009,05,27,10,05,15.30
2009,05,27,10,06,15.30
2009,05,27,10,07,15.30
2009,05,27,10,08,15.30
2009,05,27,10,09,15.30
2009,05,27,10,10,15.30
2009,05,27,10,11,15.20
2009,05,27,10,12,15.10
2009,05,27,10,13,15.00
2009,05,27,10,14,14.90
2009,05,27,10,15,14.90
2009,05,27,10,16,15.00
2009,05,27,10,17,15.00
2009,05,27,10,18,14.90
2009,05,27,10,19,14.80
2009,05,27,10,20,14.60
2009,05,27,10,21,14.60
2009,05,27,10,22,14.70
2009,05,27,10,23,14.80
2009,05,27,10,24,14.80
2009,05,27,10,25,14.80
2009,05,27,10,26,14.80
2009,05,27,10,27,14.80
2009,05,27,10,28,14.80
2009,05,27,10,29,14.90
2009,05,27,10,30,14.90
2009,05,27,10,31,14.80
2009,05,27,10,32,14.80
2009,05,27,10,33,14.90
2009,05,27,10,34,15.00
2009,05,27,10,35,15.10
2009,05,27,10,36,15.30
2009,05,27,10,37,15.40
2009,05,27,10,38,15.40
2009,05,27,10,39,15.50
2009,05,27,10,40,15.60
2009,05,27,10,41,15.70
2009,05,27,10,42,15.80
2009,05,27,10,43,16.00
2009,05,27,10,44,16.10
2009,05,27,10,45,16.10
2009,05,27,10,46,16.10
2009,05,27,10,47,16.20
2009,05,27,10,48,16.10
2009,05,27,10,49,16.20
2009,05,27,10,50,16.20
2009,05,27,10,51,16.10
2009,05,27,10,52,16.10
2009,05,27,10,53,16.10
2009,05,27,10,54,16.10
2009,05,27,10,55,16.10
2009,05,27,10,56,15.90
2009,05,27,10,57,15.80
2009,05,27,10,58,15.80
2009,05,27,10,59,15.70
2009,05,27,11,00,15.70
2009,05,27,11,01,15.70
2009,05,27,11,02,15.70
2009,05,27,11,03,15.70
2009,05,27,11,04,15.70
2009,05,27,11,05,15.60
2009,05,27,11,06,15.60
2009,05,27,11,07,15.60
2009,05,27,11,08,15.60
2009,05,27,11,09,15.60
2009,05,27,11,10,15.70
2009,05,27,11,11,15.80
2009,05,27,11,12,15.80
2009,05,27,11,13,15.70
2009,05,27,11,14,15.70
2009,05,27,11,15,15.60
2009,05,27,11,16,15.40
2009,05,27,11,17,15.20
2009,05,27,11,18,15.10
2009,05,27,11,19,15.00
2009,05,27,11,20,15.00
2009,05,27,11,21,15.00
2009,05,27,11,22,15.10
2009,05,27,11,23,15.10
2009,05,27,11,24,15.20
2009,05,27,11,25,15.10
2009,05,27,11,26,15.00
2009,05,27,11,27,14.90
2009,05,27,11,28,15.00
2009,05,27,11,29,15.00
2009,05,27,11,30,15.00
2009,05,27,11,31,15.10
2009,05,27,11,32,15.00
2009,05,27,11,33,14.90
2009,05,27,11,34,14.90
2009,05,27,11,35,15.00
2009,05,27,11,36,15.10
2009,05,27,11,37,15.10
2009,05,27,11,38,15.10
2009,05,27,11,39,15.10
2009,05,27,11,40,15.10
2009,05,27,11,41,15.00
2009,05,27,11,42,14.80
2009,05,27,11,43,14.80
2009,05,27,11,44,14.80
2009,05,27,11,45,14.80
2009,05,27,11,46,14.80
2009,05,27,11,47,14.80
2009,05,27,11,48,14.80
2009,05,27,11,49,14.80
2009,05,27,11,50,14.80
2009,05,27,11,51,14.80
2009,05,27,11,52,14.80
2009,05,27,11,53,14.80
2009,05,27,11,54,14.80
2009,05,27,11,55,14.80
2009,05,27,11,56,14.80
2009,05,27,11,57,14.90
2009,05,27,11,58,14.90
2009,05,27,11,59,15.00
2009,05,27,12,00,15.00
2009,05,27,12,01,15.10
2009,05,27,12,02,15.10
2009,05,27,12,03,15.20
2009,05,27,12,04,15.20
2009,05,27,12,05,15.30
2009,05,27,12,06,15.40
2009,05,27,12,07,15.50
2009,05,27,12,08,15.60
2009,05,27,12,09,15.70
2009,05,27,12,10,15.70
2009,05,27,12,11,15.60
2009,05,27,12,12,15.50
2009,05,27,12,13,15.40
2009,05,27,12,14,15.40
2009,05,27,12,15,15.40
2009,05,27,12,16,15.40
2009,05,27,12,17,15.40
2009,05,27,12,18,15.30
2009,05,27,12,19,15.20
2009,05,27,12,20,15.20
2009,05,27,12,21,15.30
2009,05,27,12,22,15.30
2009,05,27,12,23,15.30
2009,05,27,12,24,15.40
2009,05,27,12,25,15.50
2009,05,27,12,26,15.60
2009,05,27,12,27,15.60
2009,05,27,12,28,15.80
2009,05,27,12,29,15.80
2009,05,27,12,30,15.80
2009,05,27,12,31,15.90
2009,05,27,12,32,15.90
2009,05,27,12,33,15.90
2009,05,27,12,34,15.90
2009,05,27,12,35,16.00
2009,05,27,12,36,16.10
2009,05,27,12,37,16.10
2009,05,27,12,38,16.10
2009,05,27,12,39,16.00
2009,05,27,12,40,15.90
2009,05,27,12,41,15.80
2009,05,27,12,42,15.80
2009,05,27,12,43,15.80
2009,05,27,12,44,15.90
2009,05,27,12,45,15.90
2009,05,27,12,46,16.10
2009,05,27,12,47,16.10
2009,05,27,12,48,16.10
2009,05,27,12,49,16.20
2009,05,27,12,50,16.20
2009,05,27,12,51,16.20
2009,05,27,12,52,16.20
2009,05,27,12,53,16.20
2009,05,27,12,54,16.10
2009,05,27,12,55,16.10
2009,05,27,12,56,16.10
2009,05,27,12,57,16.10
2009,05,27,12,58,16.10
2009,05,27,12,59,16.00
2009,05,27,13,00,15.90
2009,05,27,13,01,15.90
2009,05,27,13,02,15.90
2009,05,27,13,03,15.80
2009,05,27,13,04,15.90
2009,05,27,13,05,16.10
2009,05,27,13,06,16.20
2009,05,27,13,07,16.30
2009,05,27,13,08,16.40
2009,05,27,13,09,16.40
2009,05,27,13,10,16.50
2009,05,27,13,11,16.50
2009,05,27,13,12,16.40
2009,05,27,13,13,16.60
2009,05,27,13,14,16.60
2009,05,27,13,15,16.60
2009,05,27,13,16,16.60
2009,05,27,13,17,16.60
2009,05,27,13,18,16.60
2009,05,27,13,19,16.60
2009,05,27,13,20,16.60
2009,05,27,13,21,16.40
2009,05,27,13,22,16.40
2009,05,27,13,23,16.40
2009,05,27,13,24,16.40
2009,05,27,13,25,16.40
2009,05,27,13,26,16.40
2009,05,27,13,27,16.40
2009,05,27,13,28,16.40
2009,05,27,13,29,16.40
2009,05,27,13,30,16.30
2009,05,27,13,31,16.30
2009,05,27,13,32,16.30
2009,05,27,13,33,16.30
2009,05,27,13,34,16.20
2009,05,27,13,35,16.30
2009,05,27,13,36,16.20
2009,05,27,13,37,16.20
2009,05,27,13,38,16.20
2009,05,27,13,39,16.20
2009,05,27,13,40,16.20
2009,05,27,13,41,16.30
2009,05,27,13,42,16.30
2009,05,27,13,43,16.40
2009,05,27,13,44,16.40
2009,05,27,13,45,16.40
2009,05,27,13,46,16.50
2009,05,27,13,47,16.60
2009,05,27,13,48,16.70
2009,05,27,13,49,16.70
2009,05,27,13,50,16.70
2009,05,27,13,51,16.70
2009,05,27,13,52,16.70
2009,05,27,13,53,16.70
2009,05,27,13,54,16.70
2009,05,27,13,55,16.70
2009,05,27,13,56,16.70
2009,05,27,13,57,16.70
2009,05,27,13,58,16.70
2009,05,27,13,59,16.70
2009,05,27,14,00,16.70
2009,05,27,14,01,16.70
2009,05,27,14,02,16.70
2009,05,27,14,03,16.70
2009,05,27,14,04,16.70
2009,05,27,14,05,16.60
2009,05,27,14,06,16.60
2009,05,27,14,07,16.70
2009,05,27,14,08,16.70
2009,05,27,14,09,16.80
2009,05,27,14,10,16.90
2009,05,27,14,11,17.00
2009,05,27,14,12,17.10
2009,05,27,14,13,17.30
2009,05,27,14,14,17.40
2009,05,27,14,15,17.50
2009,05,27,14,16,17.60
2009,05,27,14,17,17.70
2009,05,27,14,18,17.50
2009,05,27,14,19,17.50
2009,05,27,14,20,17.40
2009,05,27,14,21,17.30
2009,05,27,14,22,17.30
2009,05,27,14,23,17.20
2009,05,27,14,24,17.00
2009,05,27,14,25,16.90
2009,05,27,14,26,16.80
2009,05,27,14,27,16.70
2009,05,27,14,28,16.80
2009,05,27,14,29,16.80
2009,05,27,14,30,16.80
2009,05,27,14,31,16.70
2009,05,27,14,32,16.60
2009,05,27,14,33,16.60
2009,05,27,14,34,16.60
2009,05,27,14,35,16.60
2009,05,27,14,36,16.60
2009,05,27,14,37,16.70
2009,05,27,14,38,16.70
2009,05,27,14,39,16.40
2009,05,27,14,40,16.30
2009,05,27,14,41,16.20
2009,05,27,14,42,16.20
2009,05,27,14,43,16.30
2009,05,27,14,44,16.40
2009,05,27,14,45,16.40
2009,05,27,14,46,16.50
2009,05,27,14,47,16.60
2009,05,27,14,48,16.70
2009,05,27,14,49,16.70
2009,05,27,14,50,16.80
2009,05,27,14,51,16.70
2009,05,27,14,52,16.70
2009,05,27,14,53,16.70
2009,05,27,14,54,16.80
2009,05,27,14,55,16.90
2009,05,27,14,56,17.10
2009,05,27,14,57,17.30
2009,05,27,14,58,17.50
2009,05,27,14,59,17.70
2009,05,27,15,00,17.80
2009,05,27,15,01,17.80
2009,05,27,15,02,17.80
2009,05,27,15,03,17.70
2009,05,27,15,04,17.70
2009,05,27,15,05,17.70
2009,05,27,15,06,17.60
2009,05,27,15,07,17.50
2009,05,27,15,08,17.50
2009,05,27,15,09,17.50
2009,05,27,15,10,17.50
2009,05,27,15,11,17.50
2009,05,27,15,12,17.50
2009,05,27,15,13,17.50
2009,05,27,15,14,17.30
2009,05,27,15,15,17.30
2009,05,27,15,16,17.30
2009,05,27,15,17,17.30
2009,05,27,15,18,17.20
2009,05,27,15,19,17.10
2009,05,27,15,20,17.10
2009,05,27,15,21,17.10
2009,05,27,15,22,17.20
2009,05,27,15,23,17.30
2009,05,27,15,24,17.40
2009,05,27,15,25,17.30
2009,05,27,15,26,17.10
2009,05,27,15,27,17.00
2009,05,27,15,28,17.00
2009,05,27,15,29,17.00
2009,05,27,15,30,17.00
2009,05,27,15,31,16.90
2009,05,27,15,32,16.90
2009,05,27,15,33,16.80
2009,05,27,15,34,16.70
2009,05,27,15,35,16.70
2009,05,27,15,36,16.70
2009,05,27,15,37,16.80
2009,05,27,15,38,16.90
2009,05,27,15,39,16.90
2009,05,27,15,40,16.80
2009,05,27,15,41,16.80
2009,05,27,15,42,16.80
2009,05,27,15,43,16.70
2009,05,27,15,44,16.70
2009,05,27,15,45,16.70
2009,05,27,15,46,16.70
2009,05,27,15,47,16.70
2009,05,27,15,48,16.70
2009,05,27,15,49,16.70
2009,05,27,15,50,16.80
2009,05,27,15,51,16.90
2009,05,27,15,52,17.00
2009,05,27,15,53,17.00
2009,05,27,15,54,17.10
2009,05,27,15,55,17.10
2009,05,27,15,56,17.10
2009,05,27,15,57,17.00
2009,05,27,15,58,16.90
2009,05,27,15,59,16.80
2009,05,27,16,00,16.70
2009,05,27,16,01,16.70
2009,05,27,16,02,16.70
2009,05,27,16,03,16.70
2009,05,27,16,04,16.70
2009,05,27,16,05,16.70
2009,05,27,16,06,16.70
2009,05,27,16,07,16.80
2009,05,27,16,08,16.90
2009,05,27,16,09,17.00
2009,05,27,16,10,17.00
2009,05,27,16,11,17.10
2009,05,27,16,12,17.00
2009,05,27,16,13,17.00
2009,05,27,16,14,16.90
2009,05,27,16,15,16.80
2009,05,27,16,16,16.70
2009,05,27,16,17,16.60
2009,05,27,16,18,16.60
2009,05,27,16,19,16.60
2009,05,27,16,20,16.70
2009,05,27,16,21,16.70
2009,05,27,16,22,16.80
2009,05,27,16,23,16.90
2009,05,27,16,24,16.90
2009,05,27,16,25,16.90
2009,05,27,16,26,16.90
2009,05,27,16,27,16.90
2009,05,27,16,28,17.00
2009,05,27,16,29,17.20
2009,05,27,16,30,17.30
2009,05,27,16,31,17.30
2009,05,27,16,32,17.40
2009,05,27,16,33,17.30
2009,05,27,16,34,17.20
2009,05,27,16,35,17.20
2009,05,27,16,36,17.20
2009,05,27,16,37,17.20
2009,05,27,16,38,17.10
2009,05,27,16,39,17.10
2009,05,27,16,40,17.20
2009,05,27,16,41,17.20
2009,05,27,16,42,17.30
2009,05,27,16,43,17.40
2009,05,27,16,44,17.60
2009,05,27,16,45,17.70
2009,05,27,16,46,17.80
2009,05,27,16,47,17.90
2009,05,27,16,48,17.90
2009,05,27,16,49,17.90
2009,05,27,16,50,17.90
2009,05,27,16,51,17.90
2009,05,27,16,52,17.80
2009,05,27,16,53,17.70
2009,05,27,16,54,17.60
2009,05,27,16,55,17.60
2009,05,27,16,56,17.50
2009,05,27,16,57,17.50
2009,05,27,16,58,17.50
2009,05,27,16,59,17.50
2009,05,27,17,00,17.50
2009,05,27,17,01,17.50
2009,05,27,17,02,17.60
2009,05,27,17,03,17.60
2009,05,27,17,04,17.70
2009,05,27,17,05,17.70
2009,05,27,17,06,17.70
2009,05,27,17,07,17.80
2009,05,27,17,08,17.70
2009,05,27,17,09,17.70
2009,05,27,17,10,17.70
2009,05,27,17,11,17.60
2009,05,27,17,12,17.60
2009,05,27,17,13,17.50
2009,05,27,17,14,17.50
2009,05,27,17,15,17.60
2009,05,27,17,16,17.50
2009,05,27,17,17,17.50
2009,05,27,17,18,17.50
2009,05,27,17,19,17.40
2009,05,27,17,20,17.50
2009,05,27,17,21,17.50
2009,05,27,17,22,17.50
2009,05,27,17,23,17.60
2009,05,27,17,24,17.60
2009,05,27,17,25,17.60
2009,05,27,17,26,17.60
2009,05,27,17,27,17.50
2009,05,27,17,28,17.50
2009,05,27,17,29,17.40
2009,05,27,17,30,17.30
2009,05,27,17,31,17.30
2009,05,27,17,32,17.20
2009,05,27,17,33,17.20
2009,05,27,17,34,17.20
2009,05,27,17,35,17.30
2009,05,27,17,36,17.30
2009,05,27,17,37,17.30
2009,05,27,17,38,17.30
2009,05,27,17,39,17.30
2009,05,27,17,40,17.30
2009,05,27,17,41,17.30